Home > Weather > Londonderry > Past weeks

Flag for United Kingdom Weather for the Past 2 Weeks in Londonderry, Northern Ireland, United Kingdom

Now
50 °F

Passing clouds.


Feels Like: 43 °F
Forecast: 43 / 52 °F
Wind: 22 mph from Southwest

Location: Eglinton / Londonderry

Current Time: May 2, 2016 at 9:33:45 AM

Latest Report: May 2, 2016 at 8:50 AM


Visibility: N/A

Pressure: 29.74 "Hg

Humidity: 76%

Dew Point: 43 °F

Location of LondonderryLocation

Historic Weather in Londonderry — Graph

°F

Londonderry Temperature Yesterday

Maximum temperature yesterday: 59 °F (at 5:20 PM)
Minimum temperature yesterday: 54 °F (at 10:20 AM)
Average temperature yesterday: 56 °F

High & Low Weather Summary for the Past Weeks

 TemperatureHumidityPressure
High59 °F (May 1, 5:20 PM)100% (Apr 18, 6:50 AM)30.45 "Hg (Apr 18, 6:50 AM)
Low36 °F (Apr 20, 6:20 AM)47% (Apr 29, 1:50 PM)29.65 "Hg (Apr 28, 11:50 AM)
Average49 °F72%30.10 "Hg
* Reported Apr 17 10:20 AM — May 2 8:20 AM, Londonderry, Weather by CustomWeather, © 2016

Note: Actual official high and low records may vary slightly from our data, if they occured in-between our weather recording intervals... More about our weather records

Advertising

Londonderry Weather History for the Previous 24 Hours

Scroll right to see more
 ConditionsComfort  
Time TempWeatherWind HumidityBarometerVisibility
8:20 AM
Mon, May 2
48 °FPassing clouds.22 mph82%29.74 "HgN/A
7:20 AM48 °FSprinkles. Partly sunny.13 mph87%29.71 "HgN/A
6:20 AM48 °FRain showers. Passing clouds.20 mph87%29.71 "Hg6 mi
7:20 PM
Sun, May 1
59 °FScattered clouds.20 mph82%29.89 "HgN/A
6:50 PM59 °FScattered clouds.16 mph82%29.89 "HgN/A
6:20 PM59 °FScattered clouds.18 mph82%29.92 "HgN/A
5:50 PM59 °FPartly sunny.16 mph82%29.92 "HgN/A
5:20 PM59 °FPartly sunny.16 mph82%29.92 "HgN/A
4:50 PM57 °FPartly sunny.17 mph82%29.92 "HgN/A
4:20 PM57 °FPartly sunny.15 mph82%29.95 "HgN/A
3:50 PM55 °FLight rain. Broken clouds.10 mph82%29.95 "HgN/A
3:20 PM54 °FLight rain. Broken clouds.10 mph82%29.98 "Hg6 mi
2:50 PM54 °FLight rain. Partly sunny.9 mph77%30.01 "HgN/A
2:20 PM54 °FLight rain. Scattered clouds.10 mph72%30.01 "HgN/A
1:50 PM55 °FLight rain. Scattered clouds.14 mph63%30.01 "HgN/A
1:20 PM57 °FPassing clouds.9 mph63%30.01 "HgN/A
12:50 PM55 °FPassing clouds.12 mph63%30.01 "HgN/A
12:20 PM55 °FPassing clouds.15 mph59%30.01 "HgN/A
11:50 AM54 °FPassing clouds.17 mph63%30.04 "HgN/A
11:20 AM54 °FPassing clouds.14 mph67%30.04 "HgN/A
10:50 AM54 °FScattered clouds.14 mph72%30.01 "HgN/A
10:20 AM54 °FPartly sunny.10 mph72%30.01 "HgN/A
Weather by CustomWeather, © 2016

See weather overviewHow to use our weather pages